Flag for Turkey Weather past 2 weeks in Istanbul, Turkey

Now
57 °F

Clear.


Feels Like: 54 °F
Forecast: 49 / 58 °F
Wind: 15 mph from Southwest

Location: Istanbul Ataturk Airport

Current Time: Feb 1, 2015 at 6:26:56 AM

Latest Report: Feb 1, 2015 at 5:50 AM


Visibility: 10 mi

Pressure: 29.39 "Hg

Humidity: 59%

Dew point: 43 °F

Location of IstanbulLocation

Historic Weather in Istanbul — Graph

°F

Istanbul temperature yesterday

Maximum temperature yesterday: 57 °F (at 10:20 AM)
Minimum temperature yesterday: 52 °F (at 6:20 AM)
Average temperature yesterday: 56 °F

Past Weeks' High & Low Weather Summary

 TemperatureHumidityPressure
High61 °F (Jan 22, 2:50 PM)93% (Jan 18, 3:50 AM)30.33 "Hg (Jan 18, 3:50 AM)
Low36 °F (Jan 17, 6:20 AM)39% (Jan 23, 12:20 PM)29.39 "Hg (Jan 31, 9:20 AM)
Average51 °F69%29.96 "Hg
* Reported Jan 17 4:20 AM — Feb 1 4:50 AM, Istanbul, Weather by CustomWeather, © 2014

Note: Actual official high and low records may vary slightly from our data, if they occured in-between our weather recording intervals... More about our weather records

Advertising

Istanbul weather history for previous 24 hours

 ConditionsComfort  
Time TempWeatherWind HumidityBarometerVisibility
4:50 AM
Feb 1
57 °FClear.13 mph59%29.42 "Hg10 mi
4:20 AM57 °FClear.17 mph63%29.42 "Hg10 mi
3:50 AM57 °FClear.21 mph59%29.39 "Hg10 mi
3:20 AM59 °FClear.22 mph55%29.39 "Hg10 mi
2:50 AM57 °FClear.15 mph59%29.42 "Hg10 mi
2:20 AM57 °FClear.20 mph59%29.45 "Hg10 mi
1:50 AM57 °FClear.21 mph59%29.45 "Hg10 mi
1:20 AM55 °FClear.13 mph63%29.45 "Hg10 mi
12:50 AM59 °FClear.16 mph51%29.45 "Hg10 mi
12:20 AM57 °FClear.12 mph59%29.47 "Hg10 mi
11:50 PM
Jan 31
57 °FClear.14 mph59%29.47 "Hg10 mi
11:20 PM57 °FClear.15 mph59%29.45 "Hg10 mi
10:50 PM57 °FClear.17 mph59%29.45 "Hg10 mi
10:20 PM57 °FClear.15 mph59%29.45 "Hg10 mi
9:50 PM57 °FClear.14 mph59%29.47 "Hg10 mi
9:20 PM57 °FClear.14 mph59%29.47 "Hg10 mi
8:50 PM57 °FClear.20 mph59%29.45 "Hg10 mi
8:20 PM57 °FClear.20 mph59%29.45 "Hg10 mi
7:50 PM57 °FClear.21 mph59%29.45 "Hg10 mi
7:20 PM57 °FClear.23 mph59%29.42 "Hg10 mi
6:50 PM57 °FClear.24 mph59%29.42 "Hg10 mi
6:20 PM57 °FPartly cloudy.23 mph55%29.42 "HgN/A
5:50 PM57 °FPartly cloudy.25 mph59%29.45 "HgN/A
5:20 PM57 °FPartly cloudy.21 mph59%29.45 "HgN/A
4:50 PM57 °FBroken clouds.16 mph59%29.45 "HgN/A
4:20 PM57 °FBroken clouds.20 mph59%29.45 "HgN/A
3:50 PM57 °FBroken clouds.13 mph63%29.45 "HgN/A
3:20 PM57 °FBroken clouds.12 mph63%29.47 "HgN/A
2:50 PM57 °FBroken clouds.17 mph59%29.45 "HgN/A
2:20 PM57 °FBroken clouds.18 mph59%29.45 "HgN/A
1:50 PM57 °FBroken clouds.23 mph63%29.45 "HgN/A
1:20 PM57 °FBroken clouds.17 mph59%29.47 "HgN/A
12:50 PM57 °FBroken clouds.18 mph59%29.47 "HgN/A
12:20 PM57 °FBroken clouds.20 mph59%29.47 "HgN/A
11:50 AM57 °FBroken clouds.21 mph59%29.47 "HgN/A
11:20 AM57 °FBroken clouds.31 mph63%29.42 "HgN/A
10:50 AM55 °FBroken clouds.28 mph67%29.45 "HgN/A
10:20 AM57 °FBroken clouds.36 mph63%29.47 "HgN/A
9:50 AM55 °FBroken clouds.35 mph67%29.39 "HgN/A
9:20 AM55 °FBroken clouds.32 mph67%29.39 "HgN/A
8:50 AM54 °FBroken clouds.26 mph72%29.42 "HgN/A
8:20 AM52 °FBroken clouds.16 mph77%29.45 "HgN/A
7:50 AM54 °FBroken clouds.22 mph72%29.45 "HgN/A
7:20 AM52 °FBroken clouds.20 mph82%29.42 "HgN/A
6:50 AM52 °FSprinkles. Partly cloudy.24 mph77%29.45 "HgN/A
6:20 AM52 °FPartly cloudy.28 mph77%29.45 "HgN/A
Weather by CustomWeather, © 2014

See weather overviewHow to use our weather pages